Harrisburg, IL

3:22 PM CST on November 21, 2019 (GMT -0600)
Harrisburg-Raleigh

Weather History for KHSB - October, 2019

Change the Weather History Date:

Friday, October 18, 2019

  Actual Average (WUND) Record (WUND)
Temperature  
Mean Temperature 50 °F -  
Max Temperature 67 °F - - (-1)
Min Temperature 33 °F - - (-1)
Degree Days  
Heating Degree Days 15    
Moisture  
Dew Point 34 °F    
Average Humidity 64    
Maximum Humidity 91    
Minimum Humidity 25    
Precipitation  
Precipitation 0.00 in - - ()
Sea Level Pressure  
Sea Level Pressure 30.01 in    
Wind  
Wind Speed 2 mph ()    
Max Wind Speed 13 mph    
Max Gust Speed 16 mph    
Visibility 9.4 miles    
Events      
Averages and records for this station are not official NWS values.
T = Trace of Precipitation, MM = Missing Value Source: Averaged Metar Reports

Daily Weather History Graph

Daily Weather History Graph

Search for Another Location

Airport or City:

Astronomy

Oct. 18, 2019 Rise Set
Actual Time 7:05 AM CDT 6:12 PM CDT
Civil Twilight 6:38 AM CDT 6:39 PM CDT
Nautical Twilight 6:08 AM CDT 7:09 PM CDT
Astronomical Twilight 5:37 AM CDT 7:40 PM CDT
Moon 9:33 PM CDT (10/18) 11:34 AM CDT (10/18)
Length of Visible Light 12h 00m
Length of Day
11h 07m
Waning Gibbous, 78% of the Moon is Illuminated
Oct 18
Waning Gibbous
Oct 21
Last Quarter
Oct 27
New
Nov 4
First Quarter
Nov 12
Full

Hourly Weather History & Observations

Time (CDT) Temp. Windchill Dew Point Humidity Pressure Visibility Wind Dir Wind Speed Gust Speed Precip Events Conditions
12:15 AM 37.0 °F - 34.2 °F 89% 30.04 in 10.0 mi Calm Calm - N/A   Clear
12:35 AM 37.2 °F - 34.3 °F 89% 30.04 in 10.0 mi Calm Calm - N/A   Clear
12:55 AM 36.9 °F - 34.0 °F 89% 30.04 in 10.0 mi Calm Calm - N/A   Clear
1:15 AM 36.7 °F - 33.8 °F 89% 30.04 in 10.0 mi Calm Calm - N/A   Clear
1:35 AM 36.7 °F - 33.6 °F 89% 30.04 in 10.0 mi Calm Calm - N/A   Clear
1:55 AM 36.7 °F - 33.6 °F 89% 30.04 in 5.0 mi Calm Calm - N/A   Scattered Clouds
2:15 AM 36.3 °F - 33.3 °F 89% 30.04 in 10.0 mi Calm Calm - N/A   Clear
2:35 AM 35.4 °F - 32.5 °F 89% 30.04 in 3.0 mi Calm Calm - N/A   Clear
2:55 AM 35.2 °F - 32.4 °F 89% 30.04 in 4.0 mi Calm Calm - N/A   Clear
3:15 AM 37.0 °F - 34.2 °F 89% 30.03 in 10.0 mi Calm Calm - N/A   Clear
3:35 AM 36.1 °F - 33.1 °F 89% 30.02 in 10.0 mi Calm Calm - N/A   Clear
3:55 AM 35.1 °F - 32.2 °F 89% 30.03 in 10.0 mi Calm Calm - N/A   Clear
4:15 AM 34.2 °F - 31.8 °F 91% 30.04 in 10.0 mi Calm Calm - N/A   Clear
4:35 AM 35.2 °F - 32.2 °F 89% 30.05 in 10.0 mi Calm Calm - N/A   Clear
4:55 AM 35.1 °F - 32.2 °F 89% 30.05 in 10.0 mi Calm Calm - N/A   Clear
5:15 AM 34.9 °F - 32.2 °F 90% 30.06 in 10.0 mi Calm Calm - N/A   Clear
5:35 AM 34.5 °F - 32.0 °F 90% 30.06 in 7.0 mi Calm Calm - N/A   Clear
5:55 AM 33.8 °F - 31.5 °F 91% 30.07 in 10.0 mi Calm Calm - N/A   Clear
6:15 AM 34.7 °F - 32.0 °F 90% 30.07 in 10.0 mi Calm Calm - N/A   Clear
6:35 AM 34.9 °F - 32.0 °F 89% 30.07 in 10.0 mi Calm Calm - N/A   Clear
6:55 AM 34.5 °F - 32.0 °F 90% 30.08 in 5.0 mi Calm Calm - N/A   Clear
7:15 AM 33.8 °F - 31.5 °F 91% 30.08 in 4.0 mi Calm Calm - N/A   Clear
7:35 AM 33.8 °F - 31.5 °F 91% 30.08 in 5.0 mi Calm Calm - N/A   Clear
7:55 AM 36.0 °F - 33.1 °F 89% 30.09 in 7.0 mi Calm Calm - N/A   Scattered Clouds
8:15 AM 38.5 °F - 35.4 °F 89% 30.09 in 10.0 mi Calm Calm - N/A   Clear
8:35 AM 40.5 °F - 37.6 °F 89% 30.10 in 10.0 mi Calm Calm - N/A   Clear
8:55 AM 44.2 °F - 41.0 °F 88% 30.10 in 10.0 mi Calm Calm - N/A   Clear
9:15 AM 47.5 °F - 41.0 °F 78% 30.10 in 10.0 mi Calm Calm - N/A   Clear
9:35 AM 50.9 °F - 40.8 °F 68% 30.09 in 10.0 mi Calm Calm - N/A   Clear
9:55 AM 53.8 °F - 39.7 °F 59% 30.09 in 10.0 mi SE 3.5 mph - N/A   Clear
10:15 AM 55.6 °F - 38.7 °F 53% 30.09 in 10.0 mi ESE 5.8 mph - N/A   Clear
10:35 AM 57.6 °F - 37.0 °F 46% 30.09 in 10.0 mi SE 4.6 mph - N/A   Clear
10:55 AM 58.8 °F - 35.1 °F 41% 30.08 in 10.0 mi ESE 9.2 mph - N/A   Clear
11:15 AM 60.1 °F - 33.6 °F 37% 30.08 in 10.0 mi ESE 10.4 mph - N/A   Clear
11:35 AM 61.2 °F - 33.6 °F 36% 30.08 in 10.0 mi SE 8.1 mph - N/A   Clear
11:55 AM 61.5 °F - 32.4 °F 33% 30.07 in 10.0 mi SE 6.9 mph - N/A   Clear
12:15 PM 62.6 °F - 32.9 °F 33% 30.06 in 10.0 mi East 12.7 mph 16.1 mph N/A   Clear
12:35 PM 63.1 °F - 32.2 °F 31% 30.05 in 10.0 mi ESE 10.4 mph 16.1 mph N/A   Clear
12:55 PM 63.5 °F - 31.6 °F 30% 30.04 in 10.0 mi SSE 3.5 mph 11.5 mph N/A   Clear
1:15 PM 64.2 °F - 31.3 °F 29% 30.03 in 10.0 mi ESE 9.2 mph - N/A   Clear
1:35 PM 65.3 °F - 32.0 °F 29% 30.02 in 10.0 mi South 6.9 mph - N/A   Clear
1:55 PM 65.5 °F - 31.6 °F 28% 30.00 in 10.0 mi SE 11.5 mph - N/A   Clear
2:15 PM 66.4 °F - 31.5 °F 27% 29.99 in 10.0 mi ESE 10.4 mph - N/A   Clear
2:35 PM 66.7 °F - 31.6 °F 27% 29.98 in 10.0 mi ESE 10.4 mph - N/A   Clear
2:55 PM 66.9 °F - 31.1 °F 26% 29.98 in 10.0 mi SE 6.9 mph - N/A   Clear
3:15 PM 67.5 °F - 30.9 °F 26% 29.97 in 10.0 mi SSE 6.9 mph - N/A   Clear
3:35 PM 67.5 °F - 31.1 °F 26% 29.96 in 10.0 mi East 4.6 mph - N/A   Clear
3:55 PM 67.1 °F - 30.9 °F 26% 29.96 in 10.0 mi ESE 8.1 mph - N/A   Clear
4:15 PM 67.6 °F - 30.9 °F 25% 29.96 in 10.0 mi East 6.9 mph - N/A   Clear
4:35 PM 67.5 °F - 31.5 °F 26% 29.95 in 10.0 mi ESE 8.1 mph - N/A   Clear
4:55 PM 66.9 °F - 31.6 °F 27% 29.95 in 10.0 mi East 9.2 mph - N/A   Clear
5:15 PM 66.0 °F - 32.0 °F 28% 29.94 in 10.0 mi East 8.1 mph - N/A   Clear
5:35 PM 64.8 °F - 32.0 °F 29% 29.94 in 10.0 mi ESE 8.1 mph - N/A   Clear
5:55 PM 62.8 °F - 32.5 °F 32% 29.93 in 10.0 mi East 5.8 mph - N/A   Clear
6:15 PM 59.9 °F - 33.4 °F 37% 29.93 in 10.0 mi ESE 5.8 mph - N/A   Clear
6:35 PM 56.7 °F - 34.0 °F 42% 29.92 in 10.0 mi ESE 5.8 mph - N/A   Clear
6:55 PM 53.2 °F - 35.6 °F 51% 29.92 in 10.0 mi East 4.6 mph - N/A   Clear
7:15 PM 54.0 °F - 35.2 °F 49% 29.93 in 10.0 mi Calm Calm - N/A   Clear
7:35 PM 53.1 °F - 35.2 °F 51% 29.93 in 10.0 mi Calm Calm - N/A   Clear
7:55 PM 49.8 °F - 37.0 °F 61% 29.93 in 10.0 mi Calm Calm - N/A   Clear
8:15 PM 49.5 °F - 37.4 °F 63% 29.93 in 10.0 mi Calm Calm - N/A   Clear
8:35 PM 50.5 °F - 36.5 °F 59% 29.93 in 10.0 mi Calm Calm - N/A   Clear
8:55 PM 46.8 °F - 39.2 °F 75% 29.93 in 10.0 mi Calm Calm - N/A   Clear
9:15 PM 45.7 °F - 38.1 °F 75% 29.93 in 10.0 mi Calm Calm - N/A   Clear
9:35 PM 44.1 °F - 38.8 °F 82% 29.93 in 10.0 mi Calm Calm - N/A   Clear
9:55 PM 44.8 °F - 39.4 °F 81% 29.93 in 10.0 mi Calm Calm - N/A   Clear
10:15 PM 44.8 °F - 39.2 °F 81% 29.92 in 10.0 mi Calm Calm - N/A   Clear
10:35 PM 44.6 °F - 39.2 °F 81% 29.92 in 10.0 mi Calm Calm - N/A   Clear
10:55 PM 43.5 °F - 39.4 °F 85% 29.91 in 10.0 mi Calm Calm - N/A   Clear
11:15 PM 42.6 °F 40.9 °F 39.4 °F 88% 29.91 in 10.0 mi East 3.5 mph - N/A   Clear
11:35 PM 42.8 °F 41.1 °F 39.4 °F 88% 29.90 in 10.0 mi ESE 3.5 mph - N/A   Clear
11:55 PM 43.5 °F 41.9 °F 39.4 °F 85% 29.90 in 10.0 mi ESE 3.5 mph - N/A   Clear